Regional Weather Roundup
Issued by NWS Charleston, SC

Current Version | Previous Version | Text Only | Print | Product List | Glossary Off
Versions: 1 2 3 4 5 6 7 8 9 10 11 12 13 14 15 16 17 18 19 20 21 22 23 24 25 26 27 28 29 30 31 32 33 34 35 36 37 38 39 40 41 42 43 44 45 46 47 48 49 50

000
ASUS42 KCHS 122325
RWRCHS

REGIONAL WEATHER ROUNDUP
NATIONAL WEATHER SERVICE CHARLESTON SC
700 PM EDT SAT JUL 12 2014

NOTE: "FAIR" INDICATES FEW OR NO CLOUDS BELOW 12,000 FEET WITH NO
SIGNIFICANT WEATHER AND/OR OBSTRUCTIONS TO VISIBILITY.

NOT ALL STATIONS ARE QUALITY CONTROLLED BY THE NATIONAL
WEATHER SERVICE. USE DATA WITH CAUTION...ESPECIALLY
DEWPOINT OBSERVATIONS.

SCZ027-030-031-034>040-042>050-130000-
...SOUTH CAROLINA...

CITY           SKY/WX    TMP DP  RH WIND       PRES   REMARKS
N CHARLESTON   MOSUNNY   86  70  58 S6        30.13F HX  90
WATERFRONT PRK   N/A     82 N/A N/A SE9         N/A
FORT JOHNSON   NOT AVBL
MOUNT PLEASANT CLOUDY    81  73  78 SE7       30.15R
JOHNS ISLAND   CLOUDY    81  70  69 S3        30.15R
PINOPOLIS        N/A     88  75  66 NE5       30.06F HX  97
MONCKS CORNER    N/A     86  73  66 CALM      30.13R HX  93
SUMMERVILLE    FAIR      86  72  62 CALM      30.14R HX  92
BEAUFORT MCAS  MOSUNNY   87  69  54 SW5       30.13R HX  91
BEAUFORT ARPT  FAIR      82  72  69 SE7       30.14R
HILTON HEAD IS MOSUNNY   81  72  74 S3        30.15S
GEORGETOWN     NOT AVBL
WALTERBORO       N/A     84  70  61 SE3       30.14S
ORANGEBURG     MOSUNNY   87  70  56 SE7       30.13S HX  92
BARNWELL       FAIR      84  72  65 S7        30.14R
AIKEN          FAIR      88  73  62 S12       30.16R HX  96
MANNING        FAIR      86  72  62 SE5       30.13S HX  92
KINGSTREE      NOT AVBL
COLUMBIA       MOSUNNY   90  69  50 SE14      30.11S HX  94
SUMTER         NOT AVBL
FLORENCE       SUNNY     87  70  56 SE8       30.12F HX  92
MYRTLE BEACH   MOSUNNY   82  73  74 SE9       30.15F
N MYRTLE BEACH SUNNY     82  72  71 S8        30.15S

$$

GAZ063-065-086>088-099>101-113>116-118-119-134-136>141-150-130000-
...GEORGIA...

CITY           SKY/WX    TMP DP  RH WIND       PRES   REMARKS
SAVANNAH ARPT  PTSUNNY   83  69  62 S7        30.13S
HUNTER AAF     NOT AVBL
FORT STEWART   NOT AVBL
STATESBORO     NOT AVBL
SYLVANIA       PTCLDY    85  75  71 SW3       30.14S HX  93
CLAXTON        FAIR      84  73  70 SE5       30.14R HX  91
THOMSON        MOSUNNY   90  74  60 SE10G20   30.17R HX  99
AUGUSTA-BUSH   PTSUNNY   84  69  60 SE9       30.11R
AUGUSTA-DANIEL MOSUNNY   85  70  60 SE6       30.13R
SWAINSBORO     FAIR      88  73  62 SE8       30.14R HX  96
VIDALIA          N/A     82  72  69 SE8       30.14R
ALMA           CLOUDY    78  72  81 SW5       30.14S
WAYCROSS       LGT RAIN  80  76  87 SW7       30.14S
JESUP          NOT AVBL
BRUNSWICK      PTSUNNY   81  70  69 CALM      30.15R
SAINT SIMONS   PTSUNNY   78  71  79 E5        30.14R

$$

SCZ027-028-034-036>038-045-046-048>050-GAZ119-141-130000-
...LAKE AND SUPPLEMENTAL COASTAL OBSERVATIONS...

STATION/POSITION TIME  TEMP    WIND        PRES    WAVE   SWELL
                       AIR SEA DIR/SP/G            HT/PER HT/PER/DIR
                 (UTC) (F)     (DEG/KT/KT) (MB)    (FT/S) (FT/S/D)
UPR LAKE MARION  NOT AVBL
WINYAH BAY       2300   82     140/  7     1020.0F
LAKE MURRAY      2200   90      90/  9/ 11 1019.0F
ACE BASIN NERRS  2300   83     150/  3     1021.0S
FORT PULASKI     2300   80 78  150/  4/  5   N/A
SAPELO ISLAND    2300   80     100/  3     1021.0S

$$

ANZ835-935-AMZ111-154-330-350-352-354-374-450-454-472-130000-
...C-MAN AND BUOY OBSERVATIONS...

STATION/POSITION TIME  TEMP    WIND        PRES    WAVE   SWELL
                       AIR SEA DIR/SP/G            HT/PER HT/PER/DIR
                 (UTC) (F)     (DEG/KT/KT) (MB)    (FT/S) (FT/S/D)
FOLLY BEACH CMAN 2300   80     160/  8/  9 1021.1R
BUOY 41004       2300   79 82  120/  4/  6 1020.6R   2/ 7   2/ 7
BUOY 41008       2300   78 84  120/  6/  6 1020.4F   2/ 7   2/120/ 7
5E ST. MARYS GA  2300      83                N/A     2/ 7
FRYING PAN BUOY  NOT AVBL
BUOY 41025       2300          VRB  6/ 10  1021.5F   2/ 7   2/140/ 7
CAPE LOOKOUT NC  2300   79     130/  5/  6 1021.6F
BUOY 41002       2154   80 84  100/  2/  4 1022.2    2/ 8   2/110/ 8
BUOY 41010       2300   80 83  360/ 10/ 14 1020.3S   2/ 7   2/110/ 7
BUOY 41012       NOT AVBL
ST AUGUSTINE FL  2300   79      30/ 10/ 11 1021.3R
CAPERS NEARSHORE 2200   80     150/  8/ 10   N/A
FRIPP NEARSHORE  2200   81     170/  8/ 10   N/A


$$



USA.gov is the U.S. government's official web portal to all federal, state and local government web resources and services.